Location: Frydek-Mistek
(49.6830°N, 18.3330°E)
Time: 23:42:21
(UTC+02:00)

Courier 1B Rocket - All Passes

Search period start: 29 July 2016 00:00
Search period end: 08 August 2016 00:00
Orbit: 920 x 1202 km, 28.2° (Epoch: 29 July)

Date Brightness Start Highest point End Pass type
(mag) Time Alt. Az. Time Alt. Az. Time Alt. Az.
29 Jul - 05:48:36 10° SSW 05:51:49 13° S 05:55:04 10° SSE daylight
29 Jul - 07:40:45 10° SSW 07:43:58 13° S 07:47:10 10° SSE daylight
30 Jul - 04:48:50 10° S 04:51:07 11° SSE 04:53:25 10° SSE daylight
30 Jul - 06:39:37 10° SSW 06:43:16 14° S 06:46:53 10° SSE daylight
31 Jul - 05:38:55 10° SSW 05:42:32 14° S 05:46:10 10° SSE daylight
31 Jul - 07:32:15 10° SSW 07:34:40 12° SSW 07:37:05 10° S daylight
01 Aug - 04:38:38 10° SSW 04:41:49 13° S 04:45:02 10° SSE visible
01 Aug - 06:30:40 10° SSW 06:33:58 13° S 06:37:16 10° SSE daylight
02 Aug - 03:39:04 10° S 03:41:08 11° SSE 03:43:14 10° SSE visible
02 Aug - 05:29:40 10° SSW 05:33:15 14° S 05:36:52 10° SSE daylight
03 Aug - 04:29:05 10° SSW 04:32:32 14° S 04:36:02 10° SSE visible
03 Aug - 06:22:18 10° SSW 06:24:40 12° SSW 06:27:02 10° S daylight
04 Aug - 03:28:57 10° SSW 03:31:50 12° S 03:34:47 10° SSE visible
04 Aug - 05:20:50 10° SSW 05:23:58 13° S 05:27:08 10° SSE daylight
05 Aug - 02:29:43 10° S 02:31:12 11° SSE 02:32:41 10° SSE visible
05 Aug - 04:19:57 10° SSW 04:23:16 13° S 04:26:38 10° SSE visible
06 Aug - 03:19:30 10° SSW 03:22:35 13° S 03:25:43 10° SSE visible
06 Aug - 05:12:43 10° SSW 05:14:41 11° SSW 05:16:39 10° S daylight
07 Aug - 02:19:34 10° S 02:21:55 12° S 02:24:20 10° SSE visible
07 Aug - 04:11:18 10° SSW 04:14:00 12° S 04:16:45 10° SSE visible
